EW8816 Weather Reports


Display with metric or nautical units.
time (UTC)temp
F
wind
direction
speed
MPH
gust
MPH
rain 1hr
in
rain 24hr
in
rain mn
in
humidity
%
barometer
mb
20240303120523 41 300 0.0 1.0 0.00 1.24 0.18 98 1021.2
20240303120021 41 300 0.0 2.0 0.00 1.24 0.18 98 1021.1
20240303115520 41 299 0.0 2.0 0.00 1.24 0.18 98 1020.9
20240303115023 41 279 0.0 2.0 0.00 1.24 0.18 98 1020.8
20240303114520 41 279 0.0 2.0 0.00 1.24 0.18 98 1020.7
20240303114022 42 0 0.0 2.0 0.00 1.24 0.18 98 1020.6
20240303113523 42 278 0.0 2.0 0.00 1.24 0.18 98 1020.6
20240303113024 42 0 0.0 2.0 0.00 1.24 0.18 98 1020.5
20240303112520 42 0 0.0 1.0 0.00 1.24 0.18 98 1020.5
20240303112020 42 0 0.0 1.0 0.00 1.24 0.18 98 1020.5
20240303111526 42 0 0.0 1.0 0.00 1.24 0.18 98 1020.4
20240303111020 42 0 0.0 1.0 0.00 1.24 0.18 98 1020.5
20240303110520 42 0 0.0 2.0 0.00 1.24 0.18 99 1020.5
20240303110032 42 278 0.0 2.0 0.00 1.24 0.18 99 1020.4
20240303105520 42 278 0.0 2.0 0.00 1.24 0.18 99 1020.5
20240303105020 42 0 0.0 2.0 0.00 1.24 0.18 98 1020.4
20240303104530 42 288 0.0 2.0 0.00 1.24 0.18 99 1020.5
20240303104022 42 127 0.0 0.0 0.00 1.24 0.18 99 1020.4
20240303103523 42 127 0.0 1.0 0.00 1.24 0.18 99 1020.4
20240303103036 42 127 0.0 1.0 0.00 1.24 0.18 99 1020.4
20240303102522 42 0 0.0 1.0 0.00 1.24 0.18 99 1020.3
20240303102023 42 0 0.0 1.0 0.00 1.24 0.18 99 1020.5
20240303101535 42 0 0.0 0.0 0.00 1.24 0.18 99 1020.5
20240303101022 42 0 0.0 0.0 0.00 1.24 0.18 99 1020.6
20240303100524 42 0 0.0 1.0 0.00 1.24 0.18 99 1020.4
20240303100031 42 127 0.0 1.0 0.00 1.24 0.18 99 1020.5
20240303095522 42 0 0.0 0.0 0.00 1.24 0.18 99 1020.5
20240303095020 42 0 0.0 2.0 0.00 1.24 0.18 99 1020.6
20240303094525 42 0 0.0 2.0 0.00 1.24 0.18 99 1020.4
20240303094024 42 0 0.0 1.0 0.01 1.24 0.18 99 1020.4
20240303093522 42 0 0.0 0.0 0.01 1.24 0.18 99 1020.5
20240303093025 42 0 0.0 1.0 0.01 1.24 0.18 99 1020.6
20240303092523 42 0 0.0 1.0 0.01 1.24 0.18 99 1020.5
20240303092023 42 0 0.0 1.0 0.01 1.24 0.18 98 1020.4
20240303091524 42 0 0.0 1.0 0.01 1.24 0.18 98 1020.4
20240303091023 42 0 0.0 1.0 0.01 1.24 0.18 98 1020.5
20240303090522 42 0 0.0 1.0 0.01 1.24 0.18 98 1020.6
20240303090030 42 0 0.0 1.0 0.01 1.24 0.18 98 1020.6
20240303085524 42 0 0.0 1.0 0.01 1.24 0.18 98 1020.5
20240303085024 42 0 0.0 1.0 0.01 1.24 0.18 98 1020.5
20240303084532 42 0 0.0 1.0 0.01 1.24 0.18 98 1020.6
20240303084024 42 0 0.0 2.0 0.00 1.23 0.17 98 1020.6
20240303083522 42 0 0.0 2.0 0.00 1.23 0.17 98 1020.5
20240303083023 42 0 0.0 1.0 0.01 1.23 0.17 98 1020.5
20240303082524 42 0 0.0 3.0 0.01 1.23 0.17 98 1020.5
20240303082024 42 0 0.0 3.0 0.01 1.23 0.17 98 1020.5
20240303081523 42 0 0.0 1.0 0.01 1.23 0.17 98 1020.6
20240303081022 42 0 0.0 1.0 0.01 1.23 0.17 98 1020.5
20240303080524 42 0 0.0 1.0 0.01 1.23 0.17 98 1020.6
20240303080031 42 143 0.0 0.0 0.01 1.23 0.17 98 1020.6
20240303075520 42 0 0.0 0.0 0.02 1.23 0.17 98 1020.6
20240303075022 42 0 0.0 0.0 0.02 1.23 0.17 98 1020.4
20240303074536 42 0 0.0 1.0 0.02 1.23 0.17 98 1020.5
20240303074023 42 0 0.0 1.0 0.02 1.23 0.17 98 1020.6
20240303073520 42 142 0.0 1.0 0.02 1.23 0.17 98 1020.7
20240303073026 42 0 0.0 1.0 0.01 1.22 0.16 98 1020.7
20240303072523 42 0 0.0 2.0 0.02 1.22 0.16 98 1020.8
20240303072020 42 141 0.0 2.0 0.02 1.22 0.16 98 1021.0
20240303071521 42 143 0.0 3.0 0.02 1.22 0.16 98 1021.0
20240303071021 42 0 0.0 3.0 0.02 1.22 0.16 98 1021.1
20240303070522 42 47 0.0 3.0 0.02 1.22 0.16 98 1021.3
20240303070025 42 0 0.0 2.0 0.02 1.22 0.16 98 1021.3
20240303065521 42 0 0.0 2.0 0.02 1.21 0.15 98 1021.4
20240303065021 42 0 0.0 2.0 0.02 1.21 0.15 98 1021.5
20240303064524 42 0 0.0 5.0 0.02 1.21 0.15 98 1021.5
20240303064020 42 0 0.0 5.0 0.02 1.21 0.15 98 1021.7
20240303063520 42 140 0.0 1.0 0.03 1.21 0.15 98 1021.7
20240303063024 42 0 0.0 3.0 0.03 1.21 0.15 98 1021.8
20240303062522 42 208 0.0 3.0 0.02 1.20 0.14 98 1021.9
20240303062021 42 337 0.0 3.0 0.03 1.20 0.14 98 1022.1
20240303061530 42 0 0.0 2.0 0.04 1.20 0.14 98 1022.2
20240303061022 42 6 0.0 2.0 0.07 1.20 0.14 98 1022.1
20240303060524 42 0 0.0 2.0 0.09 1.20 0.14 98 1022.3
20240303060027 42 45 0.0 2.0 0.13 1.20 0.14 98 1022.3
20240303055522 42 0 0.0 1.0 0.15 1.19 0.13 98 1022.4
20240303055022 42 0 0.0 2.0 0.17 1.19 0.13 98 1022.6
20240303054530 42 337 0.0 2.0 0.18 1.19 0.13 98 1022.8
20240303054024 42 28 0.0 4.0 0.20 1.19 0.13 98 1023.0
20240303053522 42 96 1.0 4.0 0.21 1.17 0.12 98 1023.2
20240303053042 42 94 1.0 4.0 0.22 1.17 0.12 98 1023.1
20240303052523 42 76 1.0 3.0 0.24 1.17 0.12 98 1023.2
20240303052020 42 356 0.0 3.0 0.25 1.16 0.11 98 1023.2
20240303051539 42 190 0.0 2.0 0.25 1.15 0.09 98 1023.4
20240303051021 42 0 0.0 2.0 0.24 1.13 0.07 98 1023.6
20240303050523 42 0 0.0 1.0 0.23 1.11 0.05 98 1023.5
20240303050025 42 12 0.0 2.0 0.20 1.05 0.00 98 1023.7
20240303045520 42 56 0.0 2.0 0.21 1.04 1.04 98 1023.9
20240303045022 42 4 0.0 1.0 0.23 1.02 1.02 98 1023.9
20240303044525 42 0 0.0 2.0 0.26 1.01 1.01 98 1023.8
20240303044020 42 0 0.0 2.0 0.26 0.99 0.99 98 1024.0
20240303043523 42 21 0.0 1.0 0.27 0.97 0.97 98 1023.9
20240303043024 42 0 0.0 2.0 0.27 0.95 0.95 98 1024.1
20240303042523 41 79 0.0 2.0 0.28 0.93 0.93 98 1024.0
20240303042021 41 79 0.0 1.0 0.31 0.92 0.92 98 1024.3
20240303041526 41 0 0.0 1.0 0.31 0.90 0.90 98 1024.4
20240303041023 41 80 0.0 1.0 0.31 0.89 0.89 98 1024.6
20240303040520 41 95 0.0 2.0 0.30 0.87 0.87 98 1024.5
20240303040021 41 96 0.0 2.0 0.30 0.86 0.86 98 1024.8
20240303035521 41 91 0.0 1.0 0.27 0.82 0.82 98 1025.0
20240303035020 41 337 0.0 1.0 0.24 0.78 0.78 98 1025.0
20240303034531 41 0 0.0 1.0 0.22 0.75 0.75 98 1025.0
20240303034020 40 23 0.0 1.0 0.20 0.72 0.72 98 1025.1
20240303033524 40 0 0.0 1.0 0.18 0.69 0.69 98 1025.2
20240303033030 40 310 0.0 1.0 0.18 0.67 0.67 98 1025.4
20240303032522 40 0 0.0 1.0 0.16 0.64 0.64 98 1025.6
20240303032022 40 310 0.0 1.0 0.14 0.61 0.61 98 1025.6
20240303031524 40 0 0.0 1.0 0.13 0.58 0.58 98 1025.8
20240303031023 40 307 0.0 1.0 0.13 0.58 0.58 98 1025.8
20240303030523 40 0 0.0 1.0 0.13 0.57 0.57 98 1026.0
20240303030022 40 0 0.0 1.0 0.14 0.56 0.56 98 1025.9
20240303025520 40 0 0.0 1.0 0.14 0.55 0.55 98 1026.2
20240303025026 40 0 0.0 1.0 0.14 0.54 0.54 98 1026.3
20240303024529 39 0 0.0 1.0 0.14 0.52 0.52 98 1026.5
20240303024020 39 0 0.0 1.0 0.15 0.52 0.52 98 1026.5
20240303023525 39 0 0.0 1.0 0.15 0.51 0.51 98 1026.5
20240303023024 39 101 0.0 1.0 0.14 0.49 0.49 97 1026.7
20240303022523 39 0 0.0 1.0 0.14 0.48 0.48 97 1026.8
20240303022023 39 0 0.0 1.0 0.14 0.47 0.47 98 1027.0
20240303021527 39 0 0.0 1.0 0.14 0.46 0.46 98 1027.0
20240303021022 39 0 0.0 0.0 0.13 0.45 0.45 97 1027.2
20240303020521 39 0 0.0 0.0 0.12 0.43 0.43 97 1027.2
20240303020024 39 0 0.0 1.0 0.12 0.42 0.42 97 1027.3
20240303015521 39 0 0.0 1.0 0.12 0.41 0.41 98 1027.4
20240303015022 39 0 0.0 1.0 0.12 0.40 0.40 98 1027.4
20240303014522 39 0 0.0 1.0 0.13 0.39 0.39 98 1027.4
20240303014020 39 0 0.0 1.0 0.12 0.37 0.37 97 1027.4
20240303013521 39 0 0.0 1.0 0.12 0.36 0.36 97 1027.6
20240303013021 39 108 0.0 1.0 0.11 0.35 0.35 97 1027.8
20240303012521 39 0 0.0 1.0 0.11 0.34 0.34 97 1027.9
20240303012020 39 0 0.0 0.0 0.11 0.33 0.33 97 1027.9
20240303011521 39 0 0.0 1.0 0.10 0.32 0.32 97 1028.0
20240303011020 39 0 0.0 1.0 0.11 0.32 0.32 97 1028.0
20240303010520 39 0 0.0 0.0 0.10 0.31 0.31 97 1028.0
20240303010032 39 0 0.0 0.0 0.09 0.30 0.30 97 1028.0
20240303005523 39 0 0.0 0.0 0.08 0.29 0.29 97 1028.1
20240303005020 39 0 0.0 0.0 0.08 0.28 0.28 97 1028.2
20240303004522 39 0 0.0 1.0 0.06 0.26 0.26 97 1028.2
20240303004020 39 0 0.0 1.0 0.05 0.25 0.25 97 1028.3
20240303003522 39 0 0.0 1.0 0.05 0.24 0.24 97 1028.3
20240303003022 39 0 0.0 2.0 0.06 0.24 0.24 97 1028.3
20240303002520 39 0 0.0 2.0 0.05 0.23 0.23 97 1028.4
20240303002020 39 0 0.0 2.0 0.05 0.22 0.22 97 1028.5
20240303001524 39 0 0.0 1.0 0.05 0.22 0.22 97 1028.5
20240303001023 39 0 0.0 1.0 0.05 0.21 0.21 97 1028.6
20240303000522 39 103 0.0 1.0 0.05 0.21 0.21 97 1028.7
20240303000025 39 0 0.0 1.0 0.06 0.21 0.21 97 1028.8
20240302235523 39 0 0.0 1.0 0.06 0.21 0.21 97 1028.7
20240302235019 39 0 0.0 1.0 0.06 0.20 0.20 97 1028.8
20240302234523 39 73 0.0 1.0 0.06 0.20 0.20 97 1028.8
20240302234023 39 0 0.0 1.0 0.06 0.19 0.19 97 1028.9
20240302233521 39 0 0.0 1.0 0.06 0.19 0.19 97 1028.9
20240302233023 39 0 0.0 1.0 0.06 0.18 0.18 97 1029.0
20240302232522 40 0 0.0 1.0 0.06 0.18 0.18 97 1029.0
20240302232020 39 0 0.0 1.0 0.06 0.17 0.17 97 1029.1
20240302231534 39 0 0.0 0.0 0.06 0.17 0.17 97 1029.0
20240302231020 39 0 0.0 0.0 0.06 0.16 0.16 96 1029.1
20240302230520 39 0 0.0 0.0 0.06 0.16 0.16 96 1029.1
20240302230029 39 0 0.0 0.0 0.06 0.15 0.15 96 1029.1
20240302225520 39 0 0.0 1.0 0.06 0.15 0.15 96 1029.2
20240302225020 39 0 0.0 1.0 0.05 0.14 0.14 96 1029.3
20240302224530 39 0 0.0 1.0 0.06 0.14 0.14 96 1029.3
20240302224022 40 0 0.0 1.0 0.05 0.13 0.13 96 1029.3
20240302223519 40 0 0.0 1.0 0.05 0.13 0.13 96 1029.3
20240302223027 40 0 0.0 1.0 0.05 0.12 0.12 96 1029.3
20240302222521 40 0 0.0 3.0 0.05 0.12 0.12 96 1029.3
20240302222021 40 0 0.0 3.0 0.05 0.11 0.11 96 1029.4
20240302221531 40 46 0.0 1.0 0.05 0.11 0.11 96 1029.5
20240302221023 40 0 0.0 1.0 0.04 0.10 0.10 96 1029.3
20240302220520 40 0 0.0 1.0 0.05 0.10 0.10 96 1029.3
20240302220024 40 0 0.0 1.0 0.04 0.09 0.09 96 1029.4
20240302215521 40 0 0.0 1.0 0.04 0.09 0.09 95 1029.5
20240302215022 40 0 0.0 1.0 0.05 0.09 0.09 95 1029.5
20240302214527 41 46 0.0 1.0 0.04 0.08 0.08 95 1029.5
20240302214022 41 0 0.0 1.0 0.04 0.08 0.08 95 1029.5
20240302213522 41 0 0.0 1.0 0.04 0.08 0.08 95 1029.5
20240302213023 41 0 0.0 1.0 0.04 0.07 0.07 95 1029.5
20240302212520 41 0 0.0 0.0 0.04 0.07 0.07 95 1029.7
20240302212020 41 0 0.0 1.0 0.03 0.06 0.06 95 1029.7
20240302211523 41 0 0.0 1.0 0.03 0.06 0.06 95 1029.8
20240302211020 41 0 0.0 1.0 0.03 0.06 0.06 95 1029.8
20240302210523 41 0 0.0 0.0 0.02 0.05 0.05 95 1029.8
20240302210030 41 0 0.0 0.0 0.03 0.05 0.05 95 1029.9
20240302205523 41 0 0.0 0.0 0.03 0.05 0.05 94 1029.9
20240302205023 41 0 0.0 0.0 0.02 0.04 0.04 94 1030.0
20240302204525 41 0 0.0 0.0 0.02 0.04 0.04 94 1030.0
20240302204022 41 0 0.0 0.0 0.02 0.04 0.04 94 1030.1
20240302203522 41 0 0.0 0.0 0.03 0.04 0.04 94 1030.2
20240302203025 41 0 0.0 0.0 0.02 0.03 0.03 93 1030.4
20240302202522 41 0 0.0 0.0 0.03 0.03 0.03 93 1030.5
20240302202021 41 0 0.0 0.0 0.03 0.03 0.03 93 1030.5
20240302201521 42 0 0.0 0.0 0.03 0.03 0.03 93 1030.5
20240302201020 42 0 0.0 0.0 0.03 0.03 0.03 92 1030.6
20240302200520 42 0 0.0 0.0 0.03 0.03 0.03 92 1030.6
20240302200029 42 0 0.0 1.0 0.02 0.02 0.02 92 1030.7
20240302195520 42 0 0.0 1.0 0.02 0.02 0.02 91 1030.7
20240302195020 42 0 0.0 1.0 0.02 0.02 0.02 91 1030.7
20240302194524 42 0 0.0 0.0 0.02 0.02 0.02 90 1030.8
20240302194020 42 0 0.0 1.0 0.02 0.02 0.02 89 1030.8
20240302193520 42 0 0.0 1.0 0.01 0.01 0.01 89 1030.8
20240302193023 42 37 0.0 1.0 0.01 0.01 0.01 89 1030.9
20240302192523 43 0 0.0 0.0 0.00 0.00 0.00 87 1030.8
20240302192025 43 0 0.0 0.0 0.00 0.00 0.00 85 1031.0
20240302191521 43 0 0.0 0.0 0.00 0.00 0.00 83 1031.0
20240302191021 44 0 0.0 1.0 0.00 0.00 0.00 81 1031.0
20240302190522 44 0 0.0 1.0 0.00 0.00 0.00 79 1031.1
20240302190034 44 0 0.0 1.0 0.00 0.00 0.00 77 1031.1
20240302185520 44 36 0.0 1.0 0.00 0.00 0.00 76 1031.0
20240302185020 44 0 0.0 1.0 0.00 0.00 0.00 76 1031.1
20240302184522 44 0 0.0 1.0 0.00 0.00 0.00 76 1031.1
20240302184022 44 0 0.0 1.0 0.00 0.00 0.00 76 1031.1
20240302183520 44 36 0.0 2.0 0.00 0.00 0.00 76 1031.2
20240302183025 44 0 0.0 2.0 0.00 0.00 0.00 75 1031.2
20240302182522 44 36 0.0 3.0 0.00 0.00 0.00 75 1031.3
20240302182023 44 0 0.0 3.0 0.00 0.00 0.00 75 1031.3
20240302181541 44 0 0.0 3.0 0.00 0.00 0.00 75 1031.4
20240302181023 44 62 0.0 3.0 0.00 0.00 0.00 75 1031.4
20240302180525 44 0 0.0 3.0 0.00 0.00 0.00 75 1031.3
20240302180021 44 0 0.0 1.0 0.00 0.00 0.00 75 1031.4
20240302175520 44 319 0.0 3.0 0.00 0.00 0.00 75 1031.5
20240302175023 44 0 0.0 3.0 0.00 0.00 0.00 75 1031.6
20240302174522 44 36 0.0 2.0 0.00 0.00 0.00 74 1031.6
20240302174024 44 283 0.0 2.0 0.00 0.00 0.00 74 1031.7
20240302173523 44 0 0.0 2.0 0.00 0.00 0.00 74 1031.8
20240302173033 44 0 0.0 2.0 0.00 0.00 0.00 74 1031.9
20240302172521 44 235 0.0 2.0 0.00 0.00 0.00 74 1032.0
20240302172023 44 20 0.0 3.0 0.00 0.00 0.00 73 1032.0
20240302171524 44 279 0.0 3.0 0.00 0.00 0.00 73 1032.1
20240302171023 45 238 0.0 2.0 0.00 0.00 0.00 73 1032.1
20240302170522 45 0 0.0 2.0 0.00 0.00 0.00 72 1032.2
20240302170028 45 277 0.0 2.0 0.00 0.00 0.00 72 1032.4
20240302165522 45 46 0.0 5.0 0.00 0.00 0.00 72 1032.4
20240302165020 45 273 1.0 5.0 0.00 0.00 0.00 72 1032.5
20240302164525 45 238 2.0 5.0 0.00 0.00 0.00 72 1032.5
20240302164020 45 64 1.0 3.0 0.00 0.00 0.00 71 1032.5
20240302163522 45 260 0.0 4.0 0.00 0.00 0.00 71 1032.5
20240302163028 45 0 1.0 4.0 0.00 0.00 0.00 72 1032.6
20240302162520 45 6 0.0 4.0 0.00 0.00 0.00 72 1032.6
20240302162020 45 153 1.0 4.0 0.00 0.00 0.00 71 1032.7
20240302161531 45 99 1.0 4.0 0.00 0.00 0.00 72 1032.7
20240302161021 44 48 1.0 5.0 0.00 0.00 0.00 72 1032.9
20240302160522 44 264 2.0 5.0 0.00 0.00 0.00 73 1032.9
20240302160024 44 259 0.0 3.0 0.00 0.00 0.00 73 1032.9
20240302155521 44 280 1.0 4.0 0.00 0.00 0.00 73 1032.9
20240302155021 44 251 0.0 4.0 0.00 0.00 0.00 73 1032.9
20240302154523 44 0 0.0 4.0 0.00 0.00 0.00 73 1033.0
20240302154020 44 240 0.0 3.0 0.00 0.00 0.00 73 1032.9
20240302153521 43 243 1.0 5.0 0.00 0.00 0.00 73 1033.0
20240302153028 43 338 0.0 5.0 0.00 0.00 0.00 73 1032.9
20240302152523 43 249 1.0 5.0 0.00 0.00 0.00 74 1033.1
20240302152023 42 260 0.0 6.0 0.00 0.00 0.00 74 1033.2
20240302151529 42 242 0.0 6.0 0.00 0.00 0.00 74 1033.3
20240302151023 42 229 1.0 4.0 0.00 0.00 0.00 75 1033.5
20240302150523 42 251 2.0 4.0 0.00 0.00 0.00 75 1033.4
20240302150023 42 63 1.0 8.0 0.00 0.00 0.00 75 1033.5
20240302145523 41 242 2.0 8.0 0.00 0.00 0.00 75 1033.6
20240302145022 41 272 1.0 6.0 0.00 0.00 0.00 73 1033.6
20240302144526 41 137 1.0 7.0 0.00 0.00 0.00 74 1033.7
20240302144022 40 310 1.0 7.0 0.00 0.00 0.00 73 1033.8
20240302143521 40 240 1.0 5.0 0.00 0.00 0.00 73 1033.7
20240302143024 39 226 0.0 3.0 0.00 0.00 0.00 73 1033.7
20240302142520 39 236 1.0 6.0 0.00 0.00 0.00 73 1033.8
20240302142021 38 249 1.0 8.0 0.00 0.00 0.00 73 1033.8
20240302141521 38 0 0.0 8.0 0.00 0.00 0.00 74 1033.8
20240302141020 38 236 2.0 8.0 0.00 0.00 0.00 74 1034.0
20240302140520 37 0 0.0 5.0 0.00 0.00 0.00 74 1034.0
20240302140023 37 256 1.0 5.0 0.00 0.00 0.00 74 1034.1
20240302135520 37 0 0.0 3.0 0.00 0.00 0.00 75 1034.1
20240302135027 37 0 1.0 4.0 0.00 0.00 0.00 76 1034.1
20240302134532 37 276 1.0 4.0 0.00 0.00 0.00 76 1034.2
20240302134023 36 243 1.0 5.0 0.00 0.00 0.00 76 1034.1
20240302133520 36 259 2.0 5.0 0.00 0.00 0.00 76 1034.2
20240302133023 36 244 1.0 5.0 0.00 0.00 0.00 77 1034.2
20240302132519 36 252 2.0 4.0 0.00 0.00 0.00 77 1034.2
20240302132023 36 0 0.0 5.0 0.00 0.00 0.00 77 1034.2
20240302131525 36 259 1.0 5.0 0.00 0.00 0.00 78 1034.2
20240302131023 35 255 0.0 2.0 0.00 0.00 0.00 78 1034.1
20240302130521 35 256 0.0 2.0 0.00 0.00 0.00 78 1034.0
20240302130027 35 0 0.0 3.0 0.00 0.00 0.00 78 1034.1
20240302125524 35 0 0.0 3.0 0.00 0.00 0.00 78 1034.1
20240302125022 35 270 0.0 1.0 0.00 0.00 0.00 78 1034.2
20240302124526 35 270 0.0 2.0 0.00 0.00 0.00 78 1034.2
20240302124020 35 48 0.0 3.0 0.00 0.00 0.00 77 1034.2
20240302123520 35 283 0.0 3.0 0.00 0.00 0.00 77 1034.4
20240302123024 35 290 0.0 3.0 0.00 0.00 0.00 77 1034.4
20240302122521 35 245 1.0 3.0 0.00 0.00 0.00 76 1034.3
20240302122021 35 269 0.0 3.0 0.00 0.00 0.00 75 1034.2
20240302121527 35 266 0.0 5.0 0.00 0.00 0.00 74 1034.1
20240302121021 35 245 2.0 5.0 0.00 0.00 0.00 74 1034.2